EW5586 Weather Reports


time (UTC)temp
C
wind
direction
speed
KPH
gust
KPH
rain 1hr
cm
rain 24hr
cm
rain mn
cm
humidity
%
barometer
mb
20260906053612 16 346 0.0 0.0 0.00 0.00 0.00 93 1015.7
20260906053112 16 11 0.0 0.0 0.00 0.00 0.00 93 1015.6
20260906052609 16 0 0.0 0.0 0.00 0.00 0.00 93 1015.7
20260906052106 16 355 0.0 0.0 0.00 0.00 0.00 93 1015.7
20260906051605 16 20 0.0 0.0 0.00 0.00 0.00 92 1015.6
20260906051059 16 9 0.0 0.0 0.00 0.00 0.00 92 1015.6
20260906050553 16 355 0.0 0.0 0.00 0.00 0.00 92 1015.6
20260906050048 17 10 0.0 0.0 0.00 0.00 0.00 92 1015.5
20260906045541 17 350 0.0 0.0 0.00 0.00 0.00 92 1015.5
20260906044530 17 355 0.0 0.0 0.00 0.00 0.00 92 1015.4
20260906044023 17 355 0.0 0.0 0.00 0.00 0.00 92 1015.5
20260906043517 17 5 0.0 0.0 0.00 0.00 0.00 92 1015.4
20260906042505 17 5 0.0 0.0 0.00 0.00 0.00 92 1015.3
20260906041959 17 345 0.0 0.0 0.00 0.00 0.00 91 1015.3
20260906041454 17 355 0.0 0.0 0.00 0.00 0.00 91 1015.3
20260906040947 17 349 0.0 0.0 0.00 0.00 0.00 91 1015.3
20260906040446 17 355 0.0 0.0 0.00 0.00 0.00 91 1015.3
20260906035945 17 355 0.0 3.2 0.00 0.00 0.00 91 1015.2
20260906035446 17 355 0.0 6.4 0.00 0.00 0.00 91 1015.3
20260906034944 17 327 0.0 6.4 0.00 0.00 0.00 90 1015.3
20260906034444 17 329 0.0 6.4 0.00 0.00 0.00 90 1015.2
20260906033444 17 355 0.0 6.4 0.00 0.00 0.00 90 1015.1
20260906032948 17 340 0.0 6.4 0.00 0.00 0.00 89 1015.0
20260906031946 18 23 1.6 8.0 0.00 0.00 0.00 89 1015.0
20260906031444 18 355 1.6 14.5 0.00 0.00 0.00 89 1015.0
20260906030444 18 25 0.0 0.0 0.00 0.00 0.00 89 1015.0
20260906025944 18 10 0.0 0.0 0.00 0.00 0.00 89 1015.0
20260906025443 18 351 0.0 0.0 0.00 0.00 0.00 88 1015.0
20260906024944 18 355 0.0 0.0 0.00 0.00 0.00 88 1015.1
20260906024441 18 22 0.0 0.0 0.00 0.00 0.00 88 1015.0
20260906023936 18 351 0.0 0.0 0.00 0.00 0.00 88 1014.9
20260906023429 18 339 0.0 0.0 0.00 0.00 0.00 87 1014.8
20260906022923 18 5 0.0 0.0 0.00 0.00 0.00 87 1014.9
20260906022418 18 339 0.0 0.0 0.00 0.00 0.00 87 1014.9
20260906021911 18 12 0.0 0.0 0.00 0.00 0.00 86 1014.7
20260906021406 18 15 0.0 0.0 0.00 0.00 0.00 86 1014.8
20260906020859 18 306 0.0 0.0 0.00 0.00 0.00 86 1014.8
20260906020353 18 19 0.0 0.0 0.00 0.00 0.00 86 1014.8
20260906015847 18 345 0.0 0.0 0.00 0.00 0.00 86 1014.8
20260906015341 18 5 0.0 0.0 0.00 0.00 0.00 86 1014.9
20260906014835 18 0 0.0 0.0 0.00 0.00 0.00 86 1014.8
20260906013823 18 340 0.0 0.0 0.00 0.00 0.00 86 1014.7
20260906013317 18 28 0.0 0.0 0.00 0.00 0.00 86 1014.6
20260906012811 18 11 0.0 0.0 0.00 0.00 0.00 87 1014.6
20260906012306 18 329 0.0 0.0 0.00 0.00 0.00 87 1014.6
20260906011800 18 342 0.0 0.0 0.00 0.00 0.00 87 1014.6
20260906010747 18 5 0.0 0.0 0.00 0.00 0.00 87 1014.5
20260906010241 19 348 0.0 0.0 0.00 0.00 0.00 87 1014.5
20260906005735 19 355 0.0 0.0 0.00 0.00 0.00 87 1014.4
20260906004217 19 351 0.0 0.0 0.00 0.00 0.00 86 1014.3
20260906003712 19 351 0.0 0.0 0.00 0.00 0.00 85 1014.3
20260906003205 19 0 0.0 0.0 0.00 0.00 0.00 85 1014.3
20260906002659 19 348 0.0 0.0 0.00 0.00 0.00 85 1014.4
20260906002152 19 355 0.0 1.6 0.00 0.00 0.00 85 1014.4
20260906001647 19 355 0.0 1.6 0.00 0.00 0.00 85 1014.3
20260906001141 19 5 0.0 0.0 0.00 0.00 0.00 84 1014.3
20260906000635 19 5 0.0 4.8 0.00 0.00 0.00 84 1014.2
20260906000128 20 355 0.0 4.8 0.00 0.00 0.00 85 1014.2
20260905235624 20 342 0.0 0.0 0.00 0.00 0.00 85 1014.0
20260905235116 20 342 0.0 0.0 0.00 0.00 0.00 84 1014.0
20260905234105 20 355 0.0 0.0 0.00 0.00 0.00 83 1014.0
20260905233559 20 346 0.0 0.0 0.00 0.00 0.00 83 1014.0
20260905233053 20 346 0.0 0.0 0.00 0.00 0.00 82 1014.1
20260905232041 20 355 0.0 0.0 0.00 0.00 0.00 82 1014.3
20260905231535 20 14 0.0 0.0 0.00 0.00 0.00 81 1014.2
20260905231029 20 11 0.0 0.0 0.00 0.00 0.00 81 1014.2
20260905230523 20 350 0.0 0.0 0.00 0.00 0.00 81 1014.1
20260905230017 20 11 0.0 0.0 0.00 0.00 0.00 80 1014.1
20260905225518 20 18 0.0 0.0 0.00 0.00 0.00 80 1014.0
20260905225017 20 355 0.0 0.0 0.00 0.00 0.00 80 1013.9
20260905224518 20 0 0.0 0.0 0.00 0.00 0.00 80 1013.9
20260905224018 21 25 0.0 3.2 0.00 0.00 0.00 79 1013.8
20260905223517 21 11 0.0 6.4 0.00 0.00 0.00 79 1013.8
20260905223018 21 355 0.0 6.4 0.00 0.00 0.00 78 1013.7
20260905221517 21 16 6.4 14.5 0.00 0.00 0.00 77 1013.6
20260905221017 21 341 3.2 14.5 0.00 0.00 0.00 76 1013.6
20260905220017 21 332 0.0 6.4 0.00 0.00 0.00 77 1013.6
20260905215518 21 9 0.0 0.0 0.00 0.00 0.00 76 1013.6
20260905214518 21 20 0.0 6.4 0.00 0.00 0.00 76 1013.4
20260905214016 21 355 0.0 6.4 0.00 0.00 0.00 75 1013.4
20260905213513 22 0 0.0 0.0 0.00 0.00 0.00 75 1013.3
20260905213007 22 0 0.0 0.0 0.00 0.00 0.00 75 1013.2
20260905212501 22 5 0.0 0.0 0.00 0.00 0.00 77 1013.1
20260905212007 22 21 0.0 0.0 0.00 0.00 0.00 75 1013.1
20260905211449 22 26 0.0 0.0 0.00 0.00 0.00 76 1013.1
20260905210943 22 18 0.0 0.0 0.00 0.00 0.00 78 1013.1
20260905210438 22 5 0.0 0.0 0.00 0.00 0.00 77 1013.1
20260905205931 22 34 0.0 0.0 0.00 0.00 0.00 76 1013.1
20260905205426 22 355 0.0 0.0 0.00 0.00 0.00 75 1013.0
20260905204924 22 5 0.0 0.0 0.00 0.00 0.00 75 1013.1
20260905204423 22 20 0.0 0.0 0.00 0.00 0.00 75 1013.1
20260905203925 22 348 0.0 0.0 0.00 0.00 0.00 75 1013.1
20260905203423 22 9 0.0 0.0 0.00 0.00 0.00 75 1013.1
20260905202923 22 338 0.0 0.0 0.00 0.00 0.00 75 1013.1
20260905202423 22 338 0.0 0.0 0.00 0.00 0.00 74 1013.1
20260905201923 23 338 0.0 6.4 0.00 0.00 0.00 71 1013.2
20260905201423 23 18 0.0 6.4 0.00 0.00 0.00 71 1013.1
20260905200924 23 338 0.0 0.0 0.00 0.00 0.00 72 1013.1
20260905200423 23 348 0.0 0.0 0.00 0.00 0.00 72 1013.1
20260905195923 23 355 0.0 0.0 0.00 0.00 0.00 72 1013.1
20260905195424 23 355 0.0 0.0 0.00 0.00 0.00 74 1013.1
20260905194424 23 355 0.0 1.6 0.00 0.00 0.00 73 1013.0
20260905193922 24 355 0.0 1.6 0.00 0.00 0.00 73 1013.0
20260905193421 23 336 0.0 3.2 0.00 0.00 0.00 73 1013.0
20260905192921 23 201 0.0 3.2 0.00 0.00 0.00 73 1013.0
20260905192420 23 198 0.0 0.0 0.00 0.00 0.00 76 1013.0
20260905191917 23 187 0.0 1.6 0.00 0.00 0.00 73 1013.0
20260905191415 22 267 0.0 1.6 0.00 0.00 0.00 75 1013.0
20260905190916 22 269 0.0 0.0 0.00 0.00 0.00 75 1013.0
20260905190415 22 282 0.0 1.6 0.00 0.00 0.00 78 1013.1
20260905185916 22 197 0.0 3.2 0.00 0.00 0.00 76 1013.1
20260905184915 22 161 3.2 9.7 0.00 0.00 0.00 77 1013.1
20260905184415 22 191 4.8 9.7 0.00 0.00 0.00 74 1013.0
20260905183915 22 197 4.8 8.0 0.00 0.00 0.00 74 1013.1
20260905183415 22 196 3.2 8.0 0.00 0.00 0.00 74 1013.1
20260905182913 22 178 1.6 8.0 0.00 0.00 0.00 73 1013.1
20260905182413 22 196 0.0 4.8 0.00 0.00 0.00 75 1013.0
20260905181413 22 221 0.0 4.8 0.00 0.00 0.00 74 1013.0
20260905180912 22 175 0.0 0.0 0.00 0.00 0.00 78 1013.0
20260905175911 22 355 1.6 8.0 0.00 0.00 0.00 75 1013.2
20260905174911 23 190 0.0 6.4 0.00 0.00 0.00 73 1013.3
20260905174410 23 185 0.0 0.0 0.00 0.00 0.00 72 1013.3
20260905173911 23 246 0.0 4.8 0.00 0.00 0.00 72 1013.4
20260905173411 24 221 0.0 4.8 0.00 0.00 0.00 75 1013.4
20260905172907 23 225 0.0 1.6 0.00 0.00 0.00 75 1013.4
20260905172408 23 49 0.0 0.0 0.00 0.00 0.00 77 1013.5
20260905171907 23 267 0.0 4.8 0.00 0.00 0.00 77 1013.5
20260905171407 23 174 0.0 4.8 0.00 0.00 0.00 77 1013.5
20260905165907 23 316 0.0 0.0 0.00 0.00 0.00 80 1013.7
20260905165407 22 5 0.0 1.6 0.00 0.00 0.00 80 1013.6
20260905164907 22 175 0.0 1.6 0.00 0.00 0.00 81 1013.6
20260905163903 21 273 0.0 1.6 0.00 0.00 0.00 85 1013.7
20260905163403 21 208 0.0 6.4 0.00 0.00 0.00 84 1013.7
20260905162903 20 5 1.6 11.3 0.00 0.00 0.00 83 1013.8
20260905162403 20 22 1.6 11.3 0.00 0.00 0.00 81 1013.8
20260905161904 21 24 0.0 0.0 0.00 0.00 0.00 81 1013.8
20260905160904 21 30 0.0 0.0 0.00 0.00 0.00 83 1013.7
20260905160403 20 343 0.0 4.8 0.00 0.00 0.00 89 1013.6
20260905155900 20 5 0.0 6.4 0.00 0.00 0.00 87 1013.7
20260905155358 20 348 0.0 6.4 0.00 0.00 0.00 87 1013.8
20260905154859 20 5 0.0 3.2 0.00 0.00 0.00 86 1013.8
20260905154359 19 355 0.0 3.2 0.00 0.00 0.00 88 1013.8
20260905153859 19 19 0.0 0.0 0.00 0.00 0.00 87 1013.8
20260905152859 19 339 0.0 0.0 0.00 0.00 0.00 88 1013.9
20260905152357 19 5 0.0 0.0 0.00 0.00 0.00 89 1013.9
20260905151855 19 323 0.0 0.0 0.00 0.00 0.00 88 1013.9
20260905151355 18 348 0.0 0.0 0.00 0.00 0.00 89 1013.8
20260905150854 18 11 0.0 3.2 0.00 0.00 0.00 88 1013.9
20260905145849 18 19 0.0 8.0 0.00 0.00 0.00 88 1013.9
20260905144849 18 5 1.6 6.4 0.00 0.00 0.00 88 1013.8
20260905143847 18 31 0.0 1.6 0.00 0.00 0.00 89 1013.8
20260905143345 18 0 0.0 1.6 0.00 0.00 0.00 89 1013.9
20260905142845 18 12 0.0 0.0 0.00 0.00 0.00 89 1013.9
20260905141842 18 20 0.0 4.8 0.00 0.00 0.00 90 1013.9
20260905141343 18 22 0.0 4.8 0.00 0.00 0.00 90 1013.8
20260905140842 18 355 0.0 0.0 0.00 0.00 0.00 91 1013.8
20260905140341 18 5 0.0 0.0 0.00 0.00 0.00 91 1013.8
20260905135837 18 5 0.0 0.0 0.00 0.00 0.00 91 1013.8
20260905135337 18 5 0.0 0.0 0.00 0.00 0.00 92 1013.9
20260905134834 17 0 0.0 0.0 0.00 0.00 0.00 92 1013.9
20260905134334 17 340 0.0 3.2 0.00 0.00 0.00 92 1013.9
20260905133830 17 327 1.6 8.0 0.00 0.00 0.00 92 1013.9
20260905132830 17 355 0.0 8.0 0.00 0.00 0.00 92 1013.9
20260905132329 17 5 0.0 0.0 0.00 0.00 0.00 92 1013.7
20260905131328 17 355 1.6 11.3 0.00 0.00 0.00 93 1013.7
20260905130829 17 348 0.0 11.3 0.00 0.00 0.00 93 1013.7
20260905130329 17 26 1.6 6.4 0.00 0.00 0.00 94 1013.7
20260905125827 17 9 1.6 6.4 0.00 0.00 0.00 94 1013.6
20260905125326 16 350 0.0 4.8 0.00 0.00 0.00 94 1013.6
20260905124827 16 10 0.0 4.8 0.00 0.00 0.00 94 1013.6
20260905124325 16 5 0.0 8.0 0.00 0.00 0.00 95 1013.5
20260905123824 16 12 0.0 8.0 0.00 0.00 0.00 95 1013.5
20260905122823 16 15 3.2 19.3 0.00 0.00 0.00 95 1013.4
20260905121316 16 0 4.8 12.9 0.00 0.00 0.00 96 1013.2
20260905120809 16 22 3.2 14.5 0.00 0.00 0.00 96 1013.2
20260905120304 15 17 3.2 14.5 0.00 0.00 0.00 96 1013.2
20260905115758 15 5 1.6 9.7 0.00 0.00 0.00 96 1013.1
20260905115252 15 355 1.6 12.9 0.00 0.00 0.00 96 1013.0
20260905114748 15 355 0.0 12.9 0.00 0.00 0.00 96 1012.9
20260905113734 15 355 1.6 11.3 0.00 0.00 0.00 95 1012.9
20260905112722 15 339 3.2 11.3 0.00 0.00 0.00 95 1012.7
20260905112220 15 5 1.6 11.3 0.00 0.00 0.00 95 1012.7
20260905111721 15 330 1.6 9.7 0.00 0.00 0.00 95 1012.6
20260905111218 15 346 0.0 9.7 0.00 0.00 0.00 95 1012.5
20260905110718 -17 0.0 0.0 0.00 0.00 0.00 1012.5
20260905110127 -17 0.0 0.0 0.00 0.00 0.00 1012.5
20260905105024 -17 0.0 0.0 0.00 0.00 0.00 1012.4
20260905104514 -17 0.0 0.0 0.00 0.00 0.00 1012.3
20260905103923 -17 0.0 0.0 0.00 0.00 0.00 1012.3
20260905103417 -17 0.0 0.0 0.00 0.00 0.00 1012.3
20260905102915 -17 0.0 0.0 0.00 0.00 0.00 1012.3
20260905102321 -17 0.0 0.0 0.00 0.00 0.00 1012.2
20260905101820 -17 0.0 0.0 0.00 0.00 0.00 1012.2
20260905101320 -17 0.0 0.0 0.00 0.00 0.00 1012.2
20260905100818 -17 0.0 0.0 0.00 0.00 0.00 1012.1
20260905095704 -17 0.0 0.0 0.00 0.00 0.00 1012.1
20260905095123 -17 0.0 0.0 0.00 0.00 0.00 1012.0
20260905094621 -17 0.0 0.0 0.00 0.00 0.00 1012.1
20260905094119 -17 0.0 0.0 0.00 0.00 0.00 1012.1
20260905093023 -17 0.0 0.0 0.00 0.00 0.00 1012.1
20260905092517 -17 0.0 0.0 0.00 0.00 0.00 1012.1
20260905091924 -17 0.0 0.0 0.00 0.00 0.00 1012.0
20260905091419 -17 0.0 0.0 0.00 0.00 0.00 1012.1
20260905090916 -17 0.0 0.0 0.00 0.00 0.00 1012.1
20260905090323 -17 0.0 0.0 0.00 0.00 0.00 1012.0
20260905085820 -17 0.0 0.0 0.00 0.00 0.00 1012.1
20260905084720 -17 0.0 0.0 0.00 0.00 0.00 1012.0
20260905084215 -17 0.0 0.0 0.00 0.00 0.00 1012.1
20260905083650 -17 0.0 0.0 0.00 0.00 0.00 1012.1
20260905083106 -17 0.0 0.0 0.00 0.00 0.00 1012.1
20260905081413 -17 0.0 0.0 0.00 0.00 0.00 1012.0
20260905080817 16 355 0.0 0.0 0.00 0.00 0.00 93 1011.9
20260905080316 16 355 0.0 0.0 0.00 0.00 0.00 93 1011.9
20260905075808 16 355 0.0 0.0 0.00 0.00 0.00 93 1011.9
20260905074758 16 355 0.0 0.0 0.00 0.00 0.00 93 1011.9
20260905074256 16 355 0.0 0.0 0.00 0.00 0.00 93 1011.9
20260905073756 16 355 0.0 0.0 0.00 0.00 0.00 93 1011.9
20260905073257 16 355 0.0 0.0 0.00 0.00 0.00 93 1011.9
20260905072754 16 355 0.0 0.0 0.00 0.00 0.00 93 1011.9
20260905072252 16 0 0.0 0.0 0.00 0.00 0.00 93 1011.9
20260905071752 16 0 0.0 0.0 0.00 0.00 0.00 92 1011.9
20260905070748 16 5 0.0 0.0 0.00 0.00 0.00 92 1011.8
20260905070246 16 0 0.0 0.0 0.00 0.00 0.00 92 1011.8
20260905065746 16 9 0.0 0.0 0.00 0.00 0.00 92 1011.7
20260905065247 16 355 0.0 0.0 0.00 0.00 0.00 92 1011.8
20260905064746 16 9 0.0 0.0 0.00 0.00 0.00 92 1011.8
20260905064247 16 348 0.0 0.0 0.00 0.00 0.00 91 1011.8
20260905063747 17 355 0.0 0.0 0.00 0.00 0.00 91 1011.9
20260905062242 17 0 0.0 1.6 0.00 0.00 0.00 91 1012.0
20260905061743 17 5 0.0 1.6 0.00 0.00 0.00 91 1012.0
20260905061242 17 5 0.0 0.0 0.00 0.00 0.00 91 1011.9
20260905060740 17 0 0.0 0.0 0.00 0.00 0.00 91 1011.9
20260905060240 17 9 0.0 0.0 0.00 0.00 0.00 90 1011.9
20260905055741 17 355 0.0 0.0 0.00 0.00 0.00 90 1011.9
20260905054739 17 0 0.0 0.0 0.00 0.00 0.00 90 1012.0
20260905054240 17 0 0.0 0.0 0.00 0.00 0.00 90 1012.1
20260905053740 17 0 0.0 0.0 0.00 0.00 0.00 90 1012.1